Miscellaneous Local Product
Issued by NWS North Platte, NE

Home | Current Version | Previous Version | Text Only | Print | Product List | Glossary On
Versions: 1 2 3 4 5 6 7 8 9 10 11 12 13 14 15 16 17 18 19 20 21 22 23 24 25 26 27 28 29 30 31 32 33 34 35 36 37 38 39 40 41 42 43 44 45 46 47 48 49 50
000
AXUS43 KLBF 310710
MISLBF


WESTERN AND NORTH CENTRAL NEBRASKA HOURLY WEATHER ROUNDUP
NATIONAL WEATHER SERVICE NORTH PLATTE NE
100 AM CST SAT JAN 31 2015

***STATIONS NOT REPORTING VARIABLES SUCH AS SKY/WEATHER OR
PRESSURE ARE PROVIDED BY THE NEBRASKA DEPARTMENT OF
ROADS...RAWS...AND APRS NETWORKS...AND ARE NOT UNDER
NATIONAL WEATHER SERVICE QUALITY CONTROL***

...OBSERVATIONS IN AND NEAR THE EASTERN PANHANDLE OF NEBRASKA...

CITY           SKY/WX    TMP DP  RH WIND       PRES   REMARKS
PINE RIDGE     CLOUDY    26  22  84 NE3       30.07F
CHADRON        CLOUDY    28  24  85 CALM      30.08F
ALLIANCE       CLOUDY    29  26  89 N7        30.03F WCI  22
SIDNEY         CLOUDY    31  26  82 NW3       30.02F
WHITECLAY        N/A     26  22  82 S3          N/A
CRESCENT LAKE    N/A     33  29  84 E5          N/A  WCI  28
LISCO            N/A     35  29  78 NE5         N/A  WCI  31
LEWELLEN         N/A     35  30  82 E3          N/A
$$

...OBSERVATIONS IN NORTH CENTRAL NEBRASKA...

CITY           SKY/WX    TMP DP  RH WIND       PRES   REMARKS
VALENTINE      CLOUDY    28  25  88 CALM      30.09S
THEDFORD       CLOUDY    36  32  85 S8        30.08F WCI  30
AINSWORTH      CLOUDY    35  29  80 SW7       30.09S WCI  29
O`NEILL        CLOUDY    35  29  79 SW6       30.12F WCI  30
ORD            CLOUDY    36  31  82 S14       30.13F WCI  27
BROKEN BOW     CLOUDY    37  32  82 S12       30.12F WCI  29
BROWNLEE         N/A     35  30  82 S7          N/A  WCI  29
VALENTINE NWR    N/A     33  27  80 S6          N/A  WCI  27
SPRINGVIEW       N/A     28  24  86 CALM        N/A
BREWSTER         N/A     37  32  83 S3          N/A
ROSE             N/A     36  33  87 SE6         N/A  WCI  31
NEWPORT          N/A     36  30  79 SW7         N/A  WCI  31
SARGENT          N/A     36  31  82 CALM        N/A
COMSTOCK         N/A     38  35  88 S10         N/A  WCI  32
CHAMBERS         N/A     36  30  78 S6          N/A  WCI  31
EWING            N/A     37  31  79 SW5         N/A  WCI  33
$$

...OBSERVATIONS IN SOUTHWEST NEBRASKA AND FAR NORTHEAST COLORADO...

CITY           SKY/WX    TMP DP  RH WIND       PRES   REMARKS
WRAY           CLOUDY    36  33  90 SE3       30.04F
IMPERIAL       CLOUDY    36  31  82 S9        30.07F WCI  29
OGALLALA       CLOUDY    35  32  88 CALM      30.05F
NORTH PLATTE   CLOUDY    37  33  85 S9        30.09F WCI  30
MCCOOK         CLOUDY    35  33  92 S8        30.11F WCI  29
LEXINGTON      CLOUDY    36  33  90 S9        30.14F WCI  29
BRADY            N/A     35  31  84 CALM        N/A
GOTHENBURG       N/A     36  32  86 S5          N/A  WCI  32
CALLAWAY         N/A     35  32  90 S14         N/A  WCI  26
$$

...NORTH PLATTE AREA...

CITY           SKY/WX    TMP DP  RH WIND       PRES   REMARKS
AIRPORT        CLOUDY    37  33  85 S9        30.09F WCI  30
DOWNTOWN         N/A     36  32  86 S6          N/A  WCI  31
$$

...SOME WEATHER OBSERVATIONS FROM AROUND THE REGION...

CITY           SKY/WX    TMP DP  RH WIND       PRES   REMARKS
DENVER         CLOUDY    35  25  66 N7        30.02F WCI  29
LARAMIE        CLOUDY    28  22  78 CALM      30.01F
CHEYENNE       CLOUDY    32  23  69 NW6       30.03S WCI  26
SCOTTSBLUFF    CLOUDY    35  27  72 N5        30.03F WCI  31
RAPID CITY     CLOUDY    30  23  75 N8        30.09F WCI  22
PIERRE         PTCLDY    24  20  84 N8        30.11S WCI  15
WINNER         FAIR      34  24  67 CALM      30.11F
SIOUX FALLS    CLEAR     30  25  81 S3        30.11F
OMAHA          CLOUDY    33  25  72 SE8       30.23F WCI  26
GRAND ISLAND   CLOUDY    37  32  82 S17       30.20F WCI  27
KANSAS CITY    CLOUDY    32  23  69 S6        30.31F WCI  26
WICHITA        CLOUDY    39  24  55 S7        30.26F WCI  34
HAYS           CLOUDY    34  27  75 S10       30.21F WCI  26
LIBERAL        CLOUDY    36  30  80 S12       30.19S WCI  27
GOODLAND       CLOUDY    34  32  92 S16       30.05F WCI  24
$$



USA.gov is the U.S. government's official web portal to all federal, state and local government web resources and services.